Dewpoint
53 55 58 61 62 62 63 65 67 66 67 67 68 68 67 67 69 70 70 72 73 74 74 74 74 74 73 73 73 74 73 73 73 73 72 72 71 72 72 70 70 71 68 68 70 70 73 74 73 74 75 75 75 75 76 77 77 75 75 75 75 74 74
49 52 55 58 60 62 64 66 67 66 66 67 68 69 68 68 69 69 71 72 73 73 74 74 74 73 73 73 73 74 74 74 74 74 73 73 73 72 72 73 72 72 72 70 69 72 73 74 74 74 74 74 75 75 75 76 77 76 74 75 74 74 74
48 50 53 57 59 61 64 64 66 66 67 66 67 67 68 69 70 71 71 71 73 74 74 74 74 73 74 74 74 74 74 74 74 73 73 71 72 70 72 74 73 72 72 72 72 72 74 75 75 74 74 74 72 74 75 75 76 75 75 75 74 73 75
47 49 51 55 60 62 63 63 65 65 65 65 66 67 68 70 70 71 71 71 72 73 73 73 73 73 73 74 74 74 74 74 74 73 72 72 72 72 72 73 74 73 72 72 71 71 71 74 74 75 75 74 73 73 74 74 74 75 75 76 74 73 74
46 48 49 54 57 60 61 62 63 65 64 64 66 68 68 68 68 69 70 70 70 71 71 72 71 72 73 73 72 73 74 74 74 73 73 72 73 73 72 72 72 72 72 73 73 74 74 74 73 74 75 75 73 73 74 74 73 75 75 76 74 73 72
39 46 48 51 55 58 60 61 61 62 63 63 64 66 66 67 67 67 68 70 70 70 71 72 72 72 72 72 72 72 73 74 75 74 73 73 73 72 72 72 72 72 71 73 73 73 74 73 73 74 73 73 72 70 71 73 72 73 74 75 74 72 71
38 44 45 45 50 55 58 61 60 61 62 62 63 65 65 65 66 66 67 68 68 70 69 70 70 70 72 72 72 73 73 72 74 73 73 72 72 73 73 73 73 72 72 73 73 73 73 74 74 74 74 72 72 71 72 74 73 73 74 75 75 74 74
41 42 46 46 44 50 54 60 61 61 62 62 62 63 64 64 65 65 66 66 67 67 68 68 68 70 72 72 72 72 72 72 72 73 73 72 72 73 72 73 73 73 74 72 74 74 73 74 74 74 74 73 73 74 72 74 76 72 72 74 74 74 72
37 42 45 45 46 45 51 59 61 61 63 63 63 63 63 64 64 64 65 66 66 66 67 67 67 69 72 72 72 72 72 72 72 73 73 71 71 70 71 72 73 73 73 72 72 74 73 73 73 74 75 74 74 75 74 75 75 74 73 74 75 75 72
39 45 52 49 46 44 53 59 62 63 63 63 63 64 64 64 64 64 65 65 65 65 65 66 67 68 71 71 71 71 72 72 72 71 71 70 70 70 70 70 71 73 72 72 70 72 74 73 73 74 76 75 75 75 75 75 75 75 74 74 75 75 75
38 50 54 49 49 52 56 58 61 64 64 66 65 62 64 64 64 64 65 64 64 64 64 66 67 67 69 70 70 70 71 71 70 71 71 70 69 69 70 69 69 71 72 71 71 71 73 74 74 75 75 75 75 75 75 75 75 76 74 73 74 75 74
51 50 58 58 56 56 56 60 63 65 66 66 64 62 65 66 64 64 64 64 64 64 65 65 66 67 68 69 69 71 71 71 70 70 71 70 69 69 69 69 69 70 71 71 71 71 71 73 74 74 75 76 75 75 76 76 76 76 75 72 72 73 73
41 50 57 58 60 58 62 64 65 66 67 64 63 63 63 64 64 63 65 66 64 65 65 67 67 68 68 69 69 70 70 70 71 71 70 71 70 69 69 69 68 68 70 71 71 71 70 71 74 74 75 76 75 74 75 76 75 76 76 75 74 73 74
57 42 50 55 57 59 61 64 65 67 67 65 63 63 63 64 64 64 65 65 65 65 65 66 68 68 69 70 70 71 70 70 72 72 72 72 73 72 70 70 69 70 71 72 72 70 70 70 73 74 74 75 75 75 75 75 75 76 76 76 74 73 74
56 49 45 48 58 61 62 61 66 68 67 66 64 63 64 63 64 65 66 66 66 64 65 68 68 69 68 70 71 72 72 72 72 73 73 73 73 73 72 72 72 72 72 73 73 71 70 70 71 73 74 74 74 74 74 73 74 74 75 75 75 74 72
58 57 56 50 52 57 62 63 66 69 69 68 65 65 63 64 65 64 64 65 64 66 65 67 68 69 69 70 71 72 73 73 74 74 74 74 74 75 74 73 73 73 73 73 73 73 73 73 72 71 73 73 73 73 73 73 73 73 68 70 75 74 72
61 62 63 64 66 55 60 63 64 68 69 69 67 65 64 64 65 64 63 64 64 66 66 66 69 69 69 70 71 72 73 74 74 74 75 75 75 75 75 74 74 74 74 74 74 74 75 73 72 71 71 72 72 72 72 72 72 68 65 65 67 74 75
63 64 64 64 66 67 65 57 61 64 67 66 65 65 64 66 65 64 63 64 65 64 64 66 68 68 71 70 72 73 74 73 74 75 75 75 75 76 76 75 75 75 75 74 74 75 74 73 73 73 72 71 72 71 72 72 69 64 64 64 64 68 74
62 63 64 66 66 67 66 62 56 63 64 64 63 63 63 65 64 65 65 66 66 66 65 66 67 69 71 71 72 74 75 75 75 75 75 76 76 76 76 76 75 75 74 73 74 74 75 75 74 74 73 72 73 71 71 71 67 63 62 63 63 64 69
60 61 63 64 65 66 67 66 61 56 63 65 64 61 63 65 64 65 65 65 67 66 67 68 69 71 71 72 73 74 75 75 75 75 76 76 76 76 76 75 75 74 74 73 74 75 75 74 74 74 75 74 73 73 72 72 66 62 61 62 62 63 66
58 60 62 64 66 66 68 68 64 57 58 62 62 63 63 64 64 65 64 66 66 67 69 69 70 72 72 72 73 75 75 75 75 76 76 76 76 76 76 75 75 75 74 72 73 74 75 74 74 74 74 74 73 72 71 70 64 61 60 60 60 62 64
56 57 60 64 66 67 68 67 64 55 54 62 62 61 62 63 64 64 64 64 65 66 68 70 71 71 72 73 73 74 75 75 75 76 76 76 76 76 75 75 76 75 74 73 72 73 74 74 73 73 74 74 73 72 72 71 63 59 59 59 59 61 70
53 56 61 65 65 66 68 68 64 58 57 60 61 60 61 62 63 63 63 63 65 68 67 69 71 71 73 73 73 73 74 74 74 75 75 75 75 75 75 75 75 75 75 73 72 71 72 73 72 74 73 73 74 73 73 72 66 59 58 58 58 61 72
53 57 62 65 67 67 68 65 62 59 57 61 62 61 62 63 64 65 65 64 65 66 67 68 70 71 73 72 72 73 74 74 74 74 74 75 75 75 74 74 74 74 74 73 71 70 70 72 72 73 73 72 73 72 72 72 68 58 57 57 57 64 73
53 57 63 66 65 65 67 67 64 59 61 63 61 61 64 64 64 64 66 66 66 67 68 68 69 70 72 72 72 73 74 73 74 74 74 75 74 74 74 74 74 74 74 72 72 71 72 72 72 72 72 70 71 71 72 72 68 57 57 57 56 64 74
53 57 65 66 65 67 68 70 66 62 61 62 64 63 66 64 65 66 66 67 66 66 68 69 70 71 71 72 72 73 74 73 75 74 74 75 75 74 74 73 73 73 73 72 72 71 70 70 71 71 71 71 71 71 72 72 73 69 56 56 55 58 73
52 58 64 66 66 69 69 68 65 62 61 63 66 63 64 65 65 67 69 68 68 67 67 69 70 71 73 73 71 71 73 73 73 73 74 74 74 73 73 73 72 73 73 71 71 71 71 70 70 70 71 71 72 71 71 71 72 75 56 55 54 56 62
51 58 63 67 69 68 68 66 66 64 61 65 65 66 66 66 67 69 70 68 67 68 67 69 71 71 72 73 72 71 72 73 73 73 73 74 74 74 73 73 73 73 73 71 72 73 73 73 72 71 71 72 72 73 73 73 70 73 58 55 54 54 55
51 55 61 65 68 68 66 69 66 63 62 63 64 63 64 65 69 70 70 69 70 69 69 70 71 72 73 73 71 72 73 73 74 74 74 74 74 74 73 73 73 73 74 74 74 74 73 74 74 73 72 73 73 73 74 75 75 65 69 56 54 53 54
51 54 58 62 67 68 69 69 72 71 64 65 66 66 67 68 70 71 71 71 72 70 70 71 72 74 73 73 73 72 73 73 73 75 74 74 74 74 74 74 74 74 74 75 74 73 74 74 74 74 73 72 72 72 72 75 75 69 64 64 53 54 53
51 55 56 60 65 68 69 68 70 71 69 67 68 68 70 70 72 73 73 73 73 72 72 72 73 74 74 73 72 73 74 74 74 74 74 74 74 74 74 74 74 74 75 76 75 74 74 74 73 73 72 72 72 72 73 74 75 75 69 61 56 54 53
51 54 54 57 62 67 69 69 68 69 71 72 70 69 71 71 72 74 74 74 74 73 73 74 75 75 75 75 74 74 74 74 74 75 74 75 74 75 75 75 74 74 75 74 73 73 73 73 72 72 73 72 72 72 73 74 75 75 75 66 61 57 54
52 52 53 56 61 67 68 71 70 70 71 72 72 72 71 72 73 74 75 76 74 73 75 76 76 75 75 75 75 75 75 75 75 74 75 75 74 75 75 75 75 75 75 74 73 74 73 73 73 72 72 72 72 72 73 74 74 75 75 74 71 68 65
51 50 52 55 61 66 67 69 71 71 71 71 73 74 75 75 76 76 77 76 75 75 76 76 76 75 75 75 75 74 75 75 75 75 74 74 74 74 73 74 74 74 75 74 74 73 73 73 72 71 72 71 72 72 73 73 73 75 75 75 74 73 71
50 51 52 53 59 64 67 68 69 71 71 71 72 73 74 75 76 76 77 76 76 76 76 76 75 75 74 73 73 73 75 73 75 74 73 74 75 76 70 75 75 74 74 75 74 73 72 74 73 73 73 72 72 73 74 74 74 75 68 80 69 76 75
50 49 49 52 57 62 65 67 68 69 70 72 73 73 73 73 74 74 74 75 76 77 76 76 75 75 75 73 72 72 73 73 72 73 72 73 74 71 63 50 45 51 64 74 61 53 49 63 76 78 74 73 74 74 76 74 79 57 62 61 61 62 64
50 49 48 51 55 59 63 66 66 68 69 70 71 71 72 73 73 74 74 76 76 76 76 77 75 74 74 75 73 72 74 73 72 74 75 74 74 73 71 69 64 44 42 48 51 47 41 40 46 53 59 79 75 64 49 49 47 51 55 56 55 57 55
51 49 49 51 55 58 62 64 65 66 68 69 69 69 69 69 71 72 71 73 74 76 77 76 75 73 73 72 75 78 78 76 76 76 76 75 76 75 74 73 71 68 49 42 45 44 42 41 40 42 51 60 69 69 70 51 43 43 43 44 44 45 44